Location: Newark
(34.0131°N, 4.3314°W)
Time: 10:45:54
(UTC+00:00)

Explorer 11/Cluster Stage 4 - Pass Details

Date: 01 November 2019
Orbit: 467 x 1259 km, 28.8° (Epoch: 13 November)

Event Time Altitude Azimuth Distance (km) Brightness Sun altitude
Rises 04:37:44 0° 249° (WSW) 3,784 - -25.1°
Reaches altitude 10° 04:40:48 10° 243° (WSW) 2,701 - -24.4°
Exits shadow 04:45:06 35° 216° (SW) 1,365 7.5 -23.5°
Maximum altitude 04:46:55 45° 173° (S) 1,108 7.3 -23.2°
Drops below altitude 10° 04:51:49 10° 102° (ESE) 2,168 10.0 -22.2°
Sets 04:54:03 0° 95° (E) 2,971 11.1 -21.7°
